Tracking 27380 objects as of 6-Jun-2023
HD Live streaming from Space Station
objects crossing your sky now

BREEZE-M DEB

Track BREEZE-M DEB now!
10-day predictions


NORAD ID: 38651
Int'l Code: 2008-011DA
Perigee: 1,030.3 km
Apogee: 26,304.3 km
Inclination: 49.1 °
Period: 470.5 minutes
Semi major axis: 20038 km
RCS: 0.3699 m2 (medium)
Launch date: March 14, 2008
Source: Commonwealth of Independent States (former USSR) (CIS)
Launch site: TYURATAM MISSILE AND SPACE COMPLEX (TTMTR)

Note: This is SATELLITE DEBRIS
Your satellite tracking list
Your tracking list is empty




NASA's NSSDC Master Catalog

Two Line Element Set (TLE):
1 38651U 08011DA  23156.52098887  .00000886  00000-0  67853-1 0  9999
2 38651  49.1220  58.4514 6306427 225.2102 349.4702  3.06064110140951
Source of the keplerian elements: AFSPC